Weather History for Bremerton, WA

Change the Weather History Date:

Sunday, January 6, 2013

  Actual Average Record
Temperature  
Mean Temperature 39 °F -  
Max Temperature 41 °F 42 °F 57 °F (2003)
Min Temperature 37 °F 33 °F 21 °F (2005)
Degree Days  
Heating Degree Days 26    
Moisture  
Dew Point 36 °F    
Average Humidity 87    
Maximum Humidity 93    
Minimum Humidity 81    
Precipitation  
Precipitation 0.09 in - - ()
Sea Level Pressure  
Sea Level Pressure 30.13 in    
Wind  
Wind Speed 9 mph (South)    
Max Wind Speed 14 mph    
Max Gust Speed 20 mph    
Visibility 10 miles    
Events      
Averages and records for this station are not official NWS values.
T = Trace of Precipitation, MM = Missing Value Source: NWS Daily Summary

Daily Weather History Graph

Daily Weather History Graph

Search for Another Location

Airport:

Trip Planner

Search our weather history database for the weather conditions in past years. The results will help you decide how hot, cold, wet, or windy it might be!

Date:

Astronomy

Jan. 06, 2013 Rise Set
Actual Time 7:58 AM PST 4:36 PM PST
Civil Twilight 7:22 AM PST 5:11 PM PST
Nautical Twilight 6:43 AM PST 5:50 PM PST
Astronomical Twilight 6:06 AM PST 6:27 PM PST
Moon 2:09 AM PST (1/6) 12:14 PM PST (1/6)
Length of Visible Light 9h 49m
Length of Day
8h 38m
Waning Crescent, 32% of the Moon is Illuminated
Jan 6
Waning Crescent
Jan 11
New
Jan 18
First Quarter
Jan 26
Full
Feb 3
Last Quarter

Hourly Weather History & Observations

Time (PST) Temp. Windchill Dew Point Humidity Pressure Visibility Wind Dir Wind Speed Gust Speed Precip Events Conditions
12:15 AM 39.2 °F 33.6 °F 35.6 °F 87% 30.17 in 10.0 mi SSW 8.1 mph - N/A   Overcast
12:35 AM 39.2 °F 34.2 °F 35.6 °F 87% 30.16 in 10.0 mi SSW 6.9 mph - N/A   Overcast
12:55 AM 39.2 °F 32.0 °F 35.6 °F 87% 30.16 in 10.0 mi South 11.5 mph - N/A   Overcast
1:15 AM 39.2 °F 32.5 °F 35.6 °F 87% 30.17 in 10.0 mi South 10.4 mph - N/A   Overcast
1:35 AM 39.2 °F 33.6 °F 35.6 °F 87% 30.16 in 10.0 mi South 8.1 mph - N/A   Overcast
1:55 AM 39.2 °F 34.2 °F 35.6 °F 87% 30.18 in 10.0 mi South 6.9 mph - N/A   Overcast
2:15 AM 39.2 °F 33.6 °F 35.6 °F 87% 30.17 in 10.0 mi South 8.1 mph - N/A   Overcast
2:35 AM 39.2 °F 32.5 °F 35.6 °F 87% 30.17 in 10.0 mi South 10.4 mph - N/A   Overcast
2:55 AM 39.2 °F 33.0 °F 35.6 °F 87% 30.18 in 10.0 mi South 9.2 mph - N/A   Overcast
3:35 AM 39.2 °F 34.2 °F 35.6 °F 87% 30.18 in 10.0 mi SSE 6.9 mph - N/A   Overcast
3:55 AM 39.2 °F 35.9 °F 35.6 °F 87% 30.17 in 10.0 mi SSE 4.6 mph - N/A   Overcast
4:15 AM 39.2 °F 35.9 °F 35.6 °F 87% 30.16 in 10.0 mi SE 4.6 mph - N/A   Overcast
4:35 AM 39.2 °F 35.0 °F 35.6 °F 87% 30.16 in 8.0 mi SSE 5.8 mph - N/A   Overcast
4:55 AM 39.2 °F 35.0 °F 35.6 °F 87% 30.15 in 10.0 mi SSE 5.8 mph - N/A   Overcast
5:15 AM 39.2 °F - 35.6 °F 87% 30.16 in 10.0 mi Calm Calm - N/A   Overcast
5:35 AM 39.2 °F 37.0 °F 35.6 °F 87% 30.15 in 10.0 mi ESE 3.5 mph - N/A   Overcast
5:55 AM 39.2 °F 34.2 °F 35.6 °F 87% 30.17 in 10.0 mi South 6.9 mph - N/A   Overcast
6:15 AM 39.2 °F 35.9 °F 35.6 °F 87% 30.16 in 10.0 mi South 4.6 mph - N/A   Overcast
6:35 AM 39.2 °F 33.6 °F 35.6 °F 87% 30.17 in 8.0 mi South 8.1 mph - N/A   Overcast
6:55 AM 37.4 °F 30.8 °F 35.6 °F 93% 30.16 in 9.0 mi SSE 9.2 mph - N/A   Overcast
7:15 AM 37.4 °F 29.8 °F 35.6 °F 93% 30.16 in 9.0 mi SSE 11.5 mph - N/A   Overcast
7:35 AM 37.4 °F 30.8 °F 33.8 °F 87% 30.17 in 8.0 mi South 9.2 mph - N/A   Overcast
7:55 AM 37.4 °F 29.8 °F 33.8 °F 87% 30.17 in 10.0 mi South 11.5 mph - N/A   Mostly Cloudy
8:15 AM 37.4 °F 30.8 °F 33.8 °F 87% 30.18 in 9.0 mi South 9.2 mph - N/A   Mostly Cloudy
8:35 AM 37.4 °F 31.4 °F 35.6 °F 93% 30.19 in 9.0 mi South 8.1 mph - N/A   Overcast
8:55 AM 37.4 °F 30.8 °F 35.6 °F 93% 30.18 in 10.0 mi South 9.2 mph - N/A   Mostly Cloudy
9:15 AM 39.2 °F 33.0 °F 35.6 °F 87% 30.19 in 10.0 mi South 9.2 mph - N/A   Partly Cloudy
9:35 AM 39.2 °F 33.0 °F 35.6 °F 87% 30.18 in 10.0 mi South 9.2 mph - N/A   Mostly Cloudy
10:15 AM 39.2 °F 31.6 °F 35.6 °F 87% 30.20 in 10.0 mi South 12.7 mph - N/A   Mostly Cloudy
10:35 AM 39.2 °F 33.0 °F 35.6 °F 87% 30.20 in 10.0 mi SSW 9.2 mph - N/A   Overcast
10:55 AM 41.0 °F 34.3 °F 37.4 °F 87% 30.20 in 10.0 mi South 11.5 mph - N/A   Mostly Cloudy
11:15 AM 41.0 °F 34.7 °F 37.4 °F 87% 30.19 in 10.0 mi South 10.4 mph - N/A   Mostly Cloudy
11:35 AM 41.0 °F 35.2 °F 35.6 °F 81% 30.17 in 10.0 mi South 9.2 mph - N/A   Mostly Cloudy
11:55 AM 41.0 °F 34.7 °F 35.6 °F 81% 30.17 in 10.0 mi South 10.4 mph - N/A   Overcast
12:15 PM 41.0 °F 33.9 °F 37.4 °F 87% 30.16 in 10.0 mi South 12.7 mph 19.6 mph N/A   Overcast
12:35 PM 41.0 °F 33.9 °F 37.4 °F 87% 30.16 in 10.0 mi South 12.7 mph 18.4 mph N/A   Overcast
1:15 PM 41.0 °F 34.3 °F 37.4 °F 87% 30.14 in 10.0 mi South 11.5 mph - N/A   Overcast
1:35 PM 41.0 °F 33.5 °F 37.4 °F 87% 30.14 in 10.0 mi South 13.8 mph - N/A   Overcast
1:55 PM 41.0 °F 35.2 °F 37.4 °F 87% 30.13 in 8.0 mi South 9.2 mph - 0.01 in   Overcast
2:15 PM 41.0 °F 36.4 °F 37.4 °F 87% 30.14 in 10.0 mi South 6.9 mph - N/A   Mostly Cloudy
2:35 PM 41.0 °F 37.1 °F 37.4 °F 87% 30.13 in 10.0 mi South 5.8 mph - N/A   Overcast
2:55 PM 41.0 °F 35.2 °F 37.4 °F 87% 30.14 in 10.0 mi South 9.2 mph - N/A   Overcast
3:15 PM 41.0 °F 34.7 °F 37.4 °F 87% 30.12 in 10.0 mi South 10.4 mph - N/A   Overcast
3:35 PM 41.0 °F 36.4 °F 35.6 °F 81% 30.12 in 10.0 mi South 6.9 mph - N/A   Overcast
3:55 PM 41.0 °F 35.2 °F 35.6 °F 81% 30.11 in 10.0 mi South 9.2 mph - N/A   Overcast
4:15 PM 41.0 °F 35.2 °F 35.6 °F 81% 30.12 in 10.0 mi South 9.2 mph - N/A   Mostly Cloudy
4:35 PM 41.0 °F 35.8 °F 35.6 °F 81% 30.11 in 10.0 mi South 8.1 mph - N/A   Mostly Cloudy
4:55 PM 39.2 °F 33.0 °F 35.6 °F 87% 30.10 in 10.0 mi South 9.2 mph - N/A   Mostly Cloudy
5:15 PM 39.2 °F 33.6 °F 35.6 °F 87% 30.10 in 10.0 mi South 8.1 mph - N/A   Overcast
5:35 PM 39.2 °F 32.5 °F 35.6 °F 87% 30.09 in 10.0 mi South 10.4 mph - N/A   Mostly Cloudy
5:55 PM 39.2 °F 33.6 °F 35.6 °F 87% 30.09 in 10.0 mi South 8.1 mph - N/A   Mostly Cloudy
6:15 PM 39.2 °F 33.0 °F 35.6 °F 87% 30.08 in 10.0 mi South 9.2 mph - N/A   Mostly Cloudy
6:35 PM 39.2 °F 33.0 °F 35.6 °F 87% 30.08 in 10.0 mi South 9.2 mph - N/A   Overcast
7:35 PM 41.0 °F 35.2 °F 35.6 °F 81% 30.08 in 10.0 mi South 9.2 mph - N/A   Overcast
7:55 PM 39.2 °F 33.6 °F 35.6 °F 87% 30.08 in 10.0 mi South 8.1 mph - N/A   Overcast
8:15 PM 39.2 °F 33.6 °F 35.6 °F 87% 30.07 in 9.0 mi SSW 8.1 mph - 0.01 in   Overcast
8:35 PM 39.2 °F 32.5 °F 37.4 °F 93% 30.07 in 10.0 mi SSW 10.4 mph - 0.02 in   Overcast
8:55 PM 39.2 °F 32.5 °F 37.4 °F 93% 30.06 in 10.0 mi South 10.4 mph - 0.03 in   Overcast
9:35 PM 39.2 °F 33.0 °F 35.6 °F 87% 30.05 in 10.0 mi South 9.2 mph - 0.01 in   Overcast
9:55 PM 39.2 °F 33.6 °F 35.6 °F 87% 30.03 in 10.0 mi South 8.1 mph - 0.01 in   Overcast
10:15 PM 39.2 °F 34.2 °F 35.6 °F 87% 30.02 in 10.0 mi South 6.9 mph - 0.01 in   Overcast
10:35 PM 39.2 °F 33.0 °F 35.6 °F 87% 30.03 in 9.0 mi South 9.2 mph - 0.01 in   Overcast
10:55 PM 39.2 °F 33.0 °F 35.6 °F 87% 30.01 in 8.0 mi South 9.2 mph 16.1 mph 0.02 in   Overcast
11:15 PM 39.2 °F 31.6 °F 35.6 °F 87% 30.01 in 9.0 mi South 12.7 mph - 0.01 in   Overcast
11:35 PM 39.2 °F 31.6 °F 35.6 °F 87% 30.01 in 9.0 mi South 12.7 mph 19.6 mph 0.01 in   Overcast
11:55 PM 39.2 °F 32.5 °F 35.6 °F 87% 29.99 in 8.0 mi South 10.4 mph 16.1 mph 0.02 in   Overcast